World > North America > United States > Minnesota > Balaton  

Balaton, MN Hourly Weather Updates

Feedback E-mail the Weather

Quick WX

Balaton, MN Weather Maps

°F °C°F °C
Balaton Weather Map
UTC Time: 2/27/2024, 00:44
Your Time:

Balaton, MN Regional Weather

Expires:202402270100;;758802
ASUS43 KMPX 270010
RWRMN 
WEATHER ROUNDUP FOR MINNESOTA
NATIONAL WEATHER SERVICE TWIN CITIES/CHANHASSEN MN
600 PM CST MON FEB 26 2024


NOTE: "FAIR" INDICATES FEW OR NO CLOUDS BELOW 12,000 FEET WITH NO
SIGNIFICANT WEATHER AND/OR OBSTRUCTIONS TO VISIBILITY. N/A MEANS
CURRENT SKY AND/OR WEATHER CONDITIONS ARE NOT AVAILABLE.


MNZ071>073-080-081-089-090-097-098-270100-
   Southwest Minnesota   
  
CITY           SKY/WX    TMP DP  RH WIND       PRES   REMARKS
MONTEVIDEO     CLEAR     57  37  47 CALM      29.33S                  
GRANITE FALLS  CLEAR     58  39  48 CALM      29.35S                  
CANBY          CLEAR     60  39  46 SW3       29.35R                  
MARSHALL       CLEAR     59  37  44 W5        29.35R                  
REDWOOD FALLS  PTCLDY    60  32  34 W6        29.33R                  
OLIVIA         PTCLDY    55  34  44 NW5       29.34R                  
WINDOM         CLEAR     57  28  33 SW5       29.35R                  
WORTHINGTON    CLEAR     59  31  34 W5        29.37R                  
JACKSON        CLEAR     57  27  30 NW7       29.36R                  
TRACY          CLEAR     55  34  44 W9        29.34S                  
SLAYTON        CLEAR     54  35  47 SW7       29.37R                  
$$

SKY/WX - Weather  TMP - Temperature  DP - Dew Point  RH - Humidity
WIND - Wind Direction/Speed PRES - Barometric Pressure VSB - Visibility
WCI - Wind Chill Index E13G22 Wind - East Wind 13 mph/Gusts of 22 mph

Trending Headlines

Trending Entertainment Headlines

Balaton Radar Loop

Use the map search tool if you want to place a location marker on the radar map...

Balaton Quick Facts

National Two Day Weather Forecast


E-mail the Balaton Weather Forecast

Voice your opinion or tell us about page issues...